Date String (YYYY-MM-DD hh:mm:ss) UTC,Instrument flags,Ambient pressure (hPa),Sample flow (lpm),Bypass flow (lpm),Sample temperature (°C),Ambient temperature (°C),ASC tube jacket temperature (°C),LED temperature (°C),Box temperature (°C),Sample RH (%),Span deviation,Mass concentration (μg/m³),Mass concentration (μg/m³),Mass concentration (μg/m³)
DateTimeUTC,F1_M11,P_M11,Q1_M11,Q2_M11,T1_M11,T2_M11,T3_M11,T4_M11,T5_M11,U1_M11,ZSPAN_M11,X0_M11,X2_M11,X1_M11
2022-07-30 07:00:00,,0829.6,5.01,0.00,29.8,28.7,00.0,38.6,31.8,25.3,0000.0,0007.38,0004.63,0004.28
2022-07-30 07:01:00,,0829.7,4.99,0.00,29.8,28.8,00.0,38.6,31.8,25.9,0000.0,0007.37,0004.62,0004.27
2022-07-30 07:02:00,,0829.6,5.01,0.00,29.9,28.8,00.0,38.6,31.7,25.9,0000.0,0007.37,0004.64,0004.28
2022-07-30 07:03:00,,0829.7,5.00,0.00,29.9,28.8,00.0,38.6,31.8,25.7,0000.0,0007.31,0004.62,0004.27
2022-07-30 07:04:00,,0829.7,5.00,0.00,29.9,28.8,00.0,38.6,31.8,25.6,0000.0,0007.35,0004.61,0004.27
2022-07-30 07:05:00,,0829.7,5.00,0.00,29.9,28.9,00.0,38.6,31.9,25.6,0000.0,0007.42,0004.63,0004.28
2022-07-30 07:06:00,,0829.8,4.99,0.00,29.9,28.9,00.0,38.7,31.9,25.5,0000.0,0007.40,0004.62,0004.29
2022-07-30 07:07:00,,0829.6,5.01,0.00,29.9,28.9,00.0,38.7,31.9,25.3,0000.0,0007.45,0004.59,0004.29
2022-07-30 07:08:00,,0829.6,5.01,0.00,30.0,28.9,00.0,38.7,31.9,25.1,0000.0,0007.43,0004.57,0004.29
2022-07-30 07:09:00,,0829.7,5.00,0.00,30.0,29.0,00.0,38.7,31.9,25.5,0000.0,0007.33,0004.54,0004.28
2022-07-30 07:10:00,,0829.7,5.00,0.00,30.0,29.0,00.0,38.7,31.9,25.4,0000.0,0007.12,0004.51,0004.28
2022-07-30 07:11:00,,0829.6,5.00,0.00,30.0,29.0,00.0,38.7,31.9,25.4,0000.0,0007.07,0004.53,0004.29
2022-07-30 07:12:00,,0829.6,5.00,0.00,30.0,29.0,00.0,38.8,32.0,25.3,0000.0,0007.25,0004.55,0004.30
2022-07-30 07:13:00,,0829.6,5.01,0.00,30.0,29.0,00.0,38.8,32.0,25.2,0000.0,0007.45,0004.53,0004.29
2022-07-30 07:14:00,,0829.6,5.00,0.00,30.1,29.0,00.0,38.8,32.0,25.1,0000.0,0007.44,0004.53,0004.29
2022-07-30 07:15:00,,0829.6,4.99,0.00,30.1,28.4,00.0,38.8,31.9,25.0,0000.0,0007.37,0004.53,0004.28
2022-07-30 07:16:00,,0829.5,5.00,0.00,30.0,27.8,00.0,38.7,31.7,25.2,0000.0,0007.23,0004.50,0004.27
2022-07-30 07:17:00,,0829.5,4.99,0.00,29.9,27.5,00.0,38.7,31.5,25.2,0000.0,0007.19,0004.49,0004.26
2022-07-30 07:18:00,,0829.5,5.01,0.00,29.8,27.5,00.0,38.7,31.5,25.5,0000.0,0007.05,0004.52,0004.27
2022-07-30 07:19:00,,0829.5,4.99,0.00,29.8,27.6,00.0,38.6,31.4,25.7,0000.0,0007.02,0004.54,0004.27
2022-07-30 07:20:00,,0829.5,5.01,0.00,29.7,27.7,00.0,38.6,31.5,26.0,0000.0,0007.03,0004.54,0004.28
2022-07-30 07:21:00,,0829.5,4.99,0.00,29.7,27.8,00.0,38.6,31.4,26.3,0000.0,0006.92,0004.53,0004.28
2022-07-30 07:22:00,,0829.6,5.00,0.00,29.7,27.9,00.0,38.6,31.5,26.1,0000.0,0006.92,0004.52,0004.28
2022-07-30 07:23:00,,0829.5,5.00,0.00,29.7,28.0,00.0,38.6,31.5,26.2,0000.0,0006.83,0004.53,0004.28
2022-07-30 07:24:00,,0829.5,4.99,0.00,29.7,28.1,00.0,38.5,31.5,26.0,0000.0,0006.82,0004.53,0004.27
2022-07-30 07:25:00,,0829.5,5.00,0.00,29.7,28.2,00.0,38.5,31.5,26.0,0000.0,0007.70,0004.54,0004.26
2022-07-30 07:26:00,,0829.5,5.00,0.00,29.7,28.3,00.0,38.5,31.5,26.0,0000.0,0007.78,0004.54,0004.26
2022-07-30 07:27:00,,0829.5,5.01,0.00,29.7,28.4,00.0,38.5,31.6,25.9,0000.0,0008.21,0004.55,0004.25
2022-07-30 07:28:00,,0829.5,4.98,0.00,29.7,28.4,00.0,38.5,31.6,26.0,0000.0,0008.63,0004.56,0004.24
2022-07-30 07:29:00,,0829.5,5.01,0.00,29.7,28.5,00.0,38.6,31.6,26.0,0000.0,0008.56,0004.53,0004.24
2022-07-30 07:30:00,,0829.6,5.01,0.00,29.7,28.5,00.0,38.6,31.7,25.9,0000.0,0008.50,0004.51,0004.23
2022-07-30 07:31:00,,0829.5,4.99,0.00,29.8,28.6,00.0,38.6,31.7,26.0,0000.0,0008.45,0004.50,0004.22
2022-07-30 07:32:00,,0829.5,5.01,0.00,29.8,28.6,00.0,38.6,31.7,26.2,0000.0,0008.48,0004.50,0004.21
2022-07-30 07:33:00,,0829.5,5.00,0.00,29.8,28.7,00.0,38.6,31.7,26.1,0000.0,0008.54,0004.52,0004.21
2022-07-30 07:34:00,,0829.5,4.99,0.00,29.8,28.7,00.0,38.6,31.7,25.9,0000.0,0008.53,0004.50,0004.21
2022-07-30 07:35:00,,0829.5,5.01,0.00,29.8,28.7,00.0,38.6,31.8,25.9,0000.0,0008.48,0004.51,0004.21
2022-07-30 07:36:00,,0829.5,5.00,0.00,29.8,28.8,00.0,38.6,31.8,26.4,0000.0,0007.93,0004.54,0004.23
2022-07-30 07:37:00,,0829.5,4.99,0.00,29.9,28.8,00.0,38.6,31.8,26.2,0000.0,0007.98,0004.57,0004.24
2022-07-30 07:38:00,,0829.5,5.00,0.00,29.9,28.8,00.0,38.6,31.8,26.1,0000.0,0007.66,0004.57,0004.25
2022-07-30 07:39:00,,0829.5,5.00,0.00,29.9,28.8,00.0,38.7,31.8,26.1,0000.0,0007.16,0004.60,0004.26
2022-07-30 07:40:00,,0829.5,5.00,0.00,29.9,28.9,00.0,38.7,31.9,25.6,0000.0,0007.20,0004.62,0004.27
2022-07-30 07:41:00,,0829.5,4.99,0.00,29.9,28.9,00.0,38.7,31.9,25.4,0000.0,0007.31,0004.64,0004.27
2022-07-30 07:42:00,,0829.5,5.00,0.00,29.9,28.9,00.0,38.7,31.9,25.1,0000.0,0007.41,0004.64,0004.27
2022-07-30 07:43:00,,0829.5,4.99,0.00,30.0,28.9,00.0,38.7,31.9,25.0,0000.0,0007.47,0004.64,0004.26
2022-07-30 07:44:00,,0829.5,5.00,0.00,30.0,28.9,00.0,38.7,31.9,25.2,0000.0,0007.44,0004.63,0004.26
2022-07-30 07:45:00,,0829.5,4.99,0.00,30.0,29.0,00.0,38.7,31.9,24.9,0000.0,0007.46,0004.61,0004.25
2022-07-30 07:46:00,,0829.5,5.00,0.00,30.0,29.0,00.0,38.8,32.0,24.8,0000.0,0007.43,0004.59,0004.24
2022-07-30 07:47:00,,0829.6,4.98,0.00,30.0,29.0,00.0,38.8,32.0,25.3,0000.0,0007.34,0004.56,0004.24
2022-07-30 07:48:00,,0829.5,5.00,0.00,30.0,29.0,00.0,38.8,32.0,25.0,0000.0,0007.41,0004.54,0004.22
2022-07-30 07:49:00,,0829.5,5.00,0.00,30.1,29.0,00.0,38.8,32.0,25.6,0000.0,0007.58,0004.58,0004.23
2022-07-30 07:50:00,,0829.6,5.00,0.00,30.1,29.1,00.0,38.8,32.0,25.7,0000.0,0007.60,0004.58,0004.23
2022-07-30 07:51:00,,0829.5,5.00,0.00,30.1,29.1,00.0,38.8,32.0,26.1,0000.0,0007.54,0004.57,0004.24
2022-07-30 07:52:00,,0829.5,5.00,0.00,30.1,29.1,00.0,38.8,32.0,26.7,0000.0,0007.71,0004.59,0004.26
2022-07-30 07:53:00,,0829.5,5.01,0.00,30.1,29.1,00.0,38.9,32.0,27.2,0000.0,0007.71,0004.63,0004.29
2022-07-30 07:54:00,,0829.5,4.99,0.00,30.1,28.5,00.0,38.8,31.9,26.5,0000.0,0007.74,0004.67,0004.32
2022-07-30 07:55:00,,0829.5,5.00,0.00,30.0,27.8,00.0,38.8,31.7,25.4,0000.0,0007.90,0004.71,0004.33
2022-07-30 07:56:00,,0829.5,4.99,0.00,30.0,27.5,00.0,38.8,31.5,25.9,0000.0,0007.83,0004.72,0004.34
2022-07-30 07:57:00,,0829.5,5.01,0.00,29.8,27.5,00.0,38.7,31.5,27.0,0000.0,0007.82,0004.75,0004.37
2022-07-30 07:58:00,,0829.6,4.99,0.00,29.8,27.6,00.0,38.7,31.5,27.5,0000.0,0007.96,0004.81,0004.40
2022-07-30 07:59:00,,0829.6,5.00,0.00,29.8,27.7,00.0,38.7,31.5,28.2,0000.0,0007.86,0004.85,0004.43
